Retour au catalogue

JILIN-1 GAOFEN 03D 55 XING

ActifScienceSSO
NORAD 69099·PAYLOAD·🇨🇳 China
Ce nom de satellite n'a pas encore été confirmé par des sources officielles.

Lancé May 15, 2026 depuis Jiuquan Satellite Launch Center

Loading…

Prochains Passages (prochaines 24 heures)

TLE

FraisSource: Space-Track

Époque: Sep 14, 2026, 13:41 UTC

1 69099U 26106C   26257.57069150  .00005483  00000-0  32188-3 0  9998
2 69099  97.5051 338.0979 0012886 212.5273 147.5165 15.12064988 18482

Suivez JILIN-1 GAOFEN 03D 55 XING en temps réel avec AllMySat

Download on the App Store